TimeCDT,TemperatureF,Dew PointF,Humidity,Sea Level PressureIn,VisibilityMPH,Wind Direction,Wind SpeedMPH,Gust SpeedMPH,PrecipitationIn,Events,Conditions,WindDirDegrees,DateUTC
12:55 AM,45.9,31.1,56,29.97,10.0,NW,11.5,-,N/A,,Overcast,310,2011-10-20 05:55:00
1:55 AM,45.3,30.9,57,29.97,10.0,NNW,11.5,-,N/A,,Overcast,340,2011-10-20 06:55:00
2:55 AM,44.8,30.2,57,29.96,10.0,NNW,10.4,-,N/A,,Overcast,340,2011-10-20 07:55:00
3:55 AM,41.5,30.0,64,29.96,10.0,West,6.9,-,N/A,,Partly Cloudy,280,2011-10-20 08:55:00
4:55 AM,39.0,30.4,71,29.98,10.0,WNW,8.1,-,N/A,,Clear,300,2011-10-20 09:55:00
5:55 AM,36.5,30.0,77,29.99,10.0,WNW,8.1,-,N/A,,Clear,300,2011-10-20 10:55:00
6:55 AM,35.4,30.2,81,30.00,10.0,WNW,8.1,-,N/A,,Clear,290,2011-10-20 11:55:00
7:55 AM,35.4,30.4,82,30.00,10.0,WNW,8.1,-,N/A,,Clear,290,2011-10-20 12:55:00
8:55 AM,38.3,30.7,74,30.02,10.0,WNW,12.7,-,N/A,,Clear,290,2011-10-20 13:55:00
9:55 AM,43.2,31.1,62,30.04,10.0,NW,12.7,-,N/A,,Clear,310,2011-10-20 14:55:00
10:55 AM,47.1,30.6,53,30.04,10.0,NW,12.7,-,N/A,,Clear,310,2011-10-20 15:55:00
11:55 AM,50.2,29.7,45,30.04,10.0,NW,17.3,-,N/A,,Clear,320,2011-10-20 16:55:00
12:55 PM,52.0,29.3,42,30.03,10.0,NNW,11.5,-,N/A,,Clear,340,2011-10-20 17:55:00
1:55 PM,53.8,27.5,36,30.00,10.0,West,17.3,-,N/A,,Clear,280,2011-10-20 18:55:00
2:55 PM,55.4,28.9,36,29.99,10.0,West,18.4,21.9,N/A,,Clear,280,2011-10-20 19:55:00
3:55 PM,55.8,29.5,37,30.00,10.0,NW,16.1,23.0,N/A,,Clear,310,2011-10-20 20:55:00
4:55 PM,55.0,29.1,37,30.01,10.0,WNW,16.1,-,N/A,,Clear,290,2011-10-20 21:55:00
5:55 PM,53.2,29.3,40,30.02,10.0,WNW,11.5,-,N/A,,Clear,300,2011-10-20 22:55:00
6:55 PM,48.6,29.5,48,30.04,10.0,WNW,5.8,-,N/A,,Clear,300,2011-10-20 23:55:00
7:55 PM,44.6,29.8,56,30.06,10.0,West,3.5,-,N/A,,Clear,270,2011-10-21 00:55:00
8:55 PM,42.6,29.8,61,30.07,10.0,WNW,3.5,-,N/A,,Clear,290,2011-10-21 01:55:00
9:55 PM,41.7,29.7,62,30.09,10.0,Calm,Calm,-,N/A,,Clear,0,2011-10-21 02:55:00
10:55 PM,40.5,29.1,64,30.10,10.0,WSW,4.6,-,N/A,,Clear,250,2011-10-21 03:55:00
11:55 PM,38.1,29.3,71,30.12,10.0,WSW,4.6,-,N/A,,Clear,240,2011-10-21 04:55:00